Meteo Giornale » Osservazioni meteo Italia » Lamezia Terme

ore: 03:20 - Osservazioni Meteo Lamezia Terme
Lat. 38° 54' N Lon. 16° 15' E Alt. 15 metri s.l.m.

sereno Europe/Rome

22 °C

Sereno

Temp. 24 Ore

22 °C

31 °C

Nord

5.5 Km/h

Dew point 21 °C

Umidità 94 %

Visibilità  10 Km

Il sole sorge alle ore 05:40

Il sole tramonta alle ore 20:21

Data e Ora Cielo e Fenomeni T °C DP °C Um. % Pres. hPa Vis. km Vento km/h
Oggi h: 03:20 sereno Sereno 22 21 94 1012 10 N 5.5
Oggi h: 02:50 sereno Sereno 22 21 94 1012 10 N 5.5
Oggi h: 02:20 sereno Sereno 22 21 94 1012 10 N 5.5
Oggi h: 01:50 sereno Sereno 23 21 88 1012 10 N 3.7
Oggi h: 01:20 sereno Sereno 23 21 88 1012 10 N 3.7
Oggi h: 00:50 sereno Sereno 24 21 83 1012 10 N 3.7
Oggi h: 00:20 poco_nuvoloso Poco Nuvoloso 23 21 88 1012 10 N 5.5
Ieri h: 23:50 sereno Sereno 24 21 83 1012 10 N 5.5
Ieri h: 23:20 sereno Sereno 25 22 83 1012 10 N 7.4
Ieri h: 22:50 poco_nuvoloso Poco Nuvoloso 26 22 78 1012 10 N 5.5
Ieri h: 22:20 poco_nuvoloso Poco Nuvoloso 25 22 83 1012 10 N 3.7
Ieri h: 21:50 sereno Sereno 26 22 78 1012 10 S 7.4
Ieri h: 21:20 sereno Sereno 26 23 83 1012 10 SO 9.3
Ieri h: 20:50 sereno Sereno 27 22 74 1012 10 SO 9.3
Ieri h: 20:20 sereno Sereno 28 22 69 1012 10 O/SO 7.4
Ieri h: 19:50 sereno Sereno 28 22 69 1012 10 O/SO 11.1
Ieri h: 19:20 sereno Sereno 29 22 66 1011 10 O/SO 14.8
Ieri h: 18:50 sereno Sereno 29 22 66 1011 10 O/SO 16.7
Ieri h: 18:20 sereno Sereno 30 22 62 1011 10 O/SO 16.7
Ieri h: 17:50 sereno Sereno 30 22 62 1011 10 O/SO 16.7
Ieri h: 17:20 sereno Sereno 29 22 66 1011 10 SO 18.5
Ieri h: 16:50 sereno Sereno 31 23 62 1011 10 O/SO 18.5
Ieri h: 16:20 sereno Sereno 30 23 66 1011 10 O/SO 18.5
Ieri h: 15:50 sereno Sereno 31 23 62 1012 10 O/SO 20.3
Ieri h: 15:20 sereno Sereno 29 23 70 1012 10 O/SO 16.7
Ieri h: 14:50 sereno Sereno 30 23 66 1012 10 O/SO 14.8
Ieri h: 14:20 sereno Sereno 31 23 62 1012 10 O/SO 16.7
Ieri h: 13:50 sereno Sereno 31 23 62 1012 10 SO 14.8
Ieri h: 13:20 poco_nuvoloso Poco Nuvoloso 30 23 66 1012 10 SO 14.8
Ieri h: 12:50 poco_nuvoloso Poco Nuvoloso 30 24 70 1012 10 SO 14.8
Ieri h: 12:20 molto_nuvoloso Molto Nuvoloso 30 23 66 1013 10 O/SO 14.8
Ieri h: 11:50 nuvoloso Nuvoloso 30 23 66 1013 10 O/SO 16.7
Ieri h: 11:20 molto_nuvoloso Molto Nuvoloso 30 23 66 1013 10 O/SO 16.7
Ieri h: 10:50 poco_nuvoloso Poco Nuvoloso 30 23 66 1013 10 O/SO 14.8
Ieri h: 10:20 poco_nuvoloso Poco Nuvoloso 30 23 66 1013 10 SO 13
Ieri h: 09:50 sereno Sereno 29 23 70 1013 10 S/SO 13
Ieri h: 09:20 poco_nuvoloso Poco Nuvoloso 29 23 70 1012 10 SO 13
Ieri h: 08:50 molto_nuvoloso Molto Nuvoloso 28 23 74 1012 10 SO 11.1
Ieri h: 08:20 molto_nuvoloso Molto Nuvoloso 28 21 65 1012 10 N 3.7
Ieri h: 07:50 molto_nuvoloso Molto Nuvoloso 27 21 69 1012 10 N 5.5
Ieri h: 07:20 molto_nuvoloso Molto Nuvoloso 26 23 83 1012 10 N 3.7
Ieri h: 06:50 molto_nuvoloso Molto Nuvoloso 25 22 83 1012 10 N 1.8
Ieri h: 06:20 coperto Coperto 25 21 78 1012 10 N 1.8
Ieri h: 05:50 molto_nuvoloso Molto Nuvoloso 24 21 83 1012 10 N 1.8
Ieri h: 05:20 molto_nuvoloso Molto Nuvoloso 24 21 83 1012 10 N 3.7
Ieri h: 04:50 molto_nuvoloso Molto Nuvoloso 24 21 83 1011 10 N 3.7
Ieri h: 04:20 molto_nuvoloso Molto Nuvoloso 24 20 78 1011 10 N 1.8
Ieri h: 03:50 molto_nuvoloso Molto Nuvoloso 23 20 83 1011 10 N 1.8